Location: ???? ?????
(37.9132°N, 22.9869°E)
Time: 20:51:05
(UTC+00:00)

BlueWalker 3 - Pass Details

Date: 20 October 2024
Orbit: 470 x 481 km, 53.2° (Epoch: 12 November)

Event Time Altitude Azimuth Distance (km) Brightness Sun altitude
Exits shadow 02:58:54 13° 354° (N) 1,470 4.2 -21.0°
Maximum altitude 03:00:37 17° 26° (NNE) 1,281 4.3 -20.6°
Drops below altitude 10° 03:03:02 10° 67° (ENE) 1,629 5.5 -20.1°
Sets 03:05:48 0° 89° (E) 2,505 7.1 -19.6°
